This is the latest recevied weather packets stored in our database for station/object OE6ATD-13. If no packets are shown the sender has not sent any weather packets the latest 10 day(s).
| Time | Temp. | Humidity | Pressure | Rain* | Wind** | Luminosity | Snow |
|---|---|---|---|---|---|---|---|
| 1788520826 | 31.67° C | 36% | 1018.8 hPa | 0 mm | - | 855 W/m² | - |
| 1788520222 | 31.11° C | 37% | 1018.8 hPa | 0 mm | - | 854 W/m² | - |
| 1788519618 | 31.11° C | 37% | 1018.9 hPa | 0 mm | - | 852 W/m² | - |
| 1788519028 | 30.56° C | 37% | 1019 hPa | 0 mm | - | 854 W/m² | - |
| 1788518425 | 30.56° C | 37% | 1019.1 hPa | 0 mm | - | 852 W/m² | - |
| 1788517835 | 31.11° C | 38% | 1019.3 hPa | 0 mm | - | 857 W/m² | - |
| 1788517216 | 31.11° C | 39% | 1019.3 hPa | 0 mm | - | 845 W/m² | - |
| 1788516627 | 30.56° C | 40% | 1019.4 hPa | 0 mm | - | 778 W/m² | - |
| 1788516023 | 30.56° C | 40% | 1019.6 hPa | 0 mm | - | 867 W/m² | - |
| 1788515418 | 30° C | 42% | 1019.7 hPa | 0 mm | - | 844 W/m² | - |
| 1788514840 | 29.44° C | 43% | 1019.7 hPa | 0 mm | - | 792 W/m² | - |
| 1788514225 | 28.89° C | 45% | 1019.9 hPa | 0 mm | - | 778 W/m² | - |
| 1788513628 | 28.89° C | 46% | 1019.9 hPa | 0 mm | - | 719 W/m² | - |
| 1788513024 | 28.33° C | 48% | 1020.1 hPa | 0 mm | - | 718 W/m² | - |
| 1788512420 | 27.78° C | 49% | 1020.2 hPa | 0 mm | - | 651 W/m² | - |
| 1788511815 | 27.78° C | 49% | 1020.4 hPa | 0 mm | - | 658 W/m² | - |
| 1788511226 | 27.22° C | 51% | 1020.4 hPa | 0 mm | - | 635 W/m² | - |
| 1788510622 | 27.22° C | 53% | 1020.4 hPa | 0 mm | - | 604 W/m² | - |
| 1788510027 | 26.67° C | 55% | 1020.3 hPa | 0 mm | - | 544 W/m² | - |
| 1788509422 | 26.67° C | 54% | 1020.4 hPa | 0 mm | - | 563 W/m² | - |
| 1788508818 | 26.67° C | 55% | 1020.4 hPa | 0 mm | - | 553 W/m² | - |
| 1788508229 | 26.67° C | 54% | 1020.3 hPa | 0 mm | - | 476 W/m² | - |
| 1788507625 | 25.56° C | 54% | 1020.2 hPa | 0 mm | - | 461 W/m² | - |
| 1788507021 | 25° C | 54% | 1020.2 hPa | 0 mm | - | 421 W/m² | - |
| 1788506417 | 26.11° C | 55% | 1020.2 hPa | 0 mm | - | 384 W/m² | - |
* Rain latest hour (hover to see other rain measurements)
** Current wind speed in m/s (hover to see current wind gust speed)